Huntsville, AL

6:35 PM CDT on April 27, 2017 (GMT -0500)
Huntsville International

Weather History for KHSV - January, 2014

Change the Weather History Date:

Tuesday, January 21, 2014

  Actual Average Record
Temperature  
Mean Temperature 35 °F 41 °F  
Max Temperature 51 °F 51 °F 73 °F (1937)
Min Temperature 19 °F 32 °F -11 °F (1985)
Degree Days  
Heating Degree Days 30 24  
Month to date heating degree days 586 504  
Since 1 July heating degree days 1853 1685  
Cooling Degree Days 0 0  
Month to date cooling degree days 0 0  
Year to date cooling degree days 0 0  
Moisture  
Dew Point 20 °F    
Average Humidity 57    
Maximum Humidity 70    
Minimum Humidity 44    
Precipitation  
Precipitation T in 0.16 in 2.36 in (1954)
Month to date precipitation 3.30 3.34  
Year to date precipitation 3.30 3.34  
Snow  
Snow 0.00 in - - ()
Month to date snowfall T  
Since 1 July snowfall T  
Snow Depth 0.00 in    
Sea Level Pressure  
Sea Level Pressure 30.02 in    
Wind  
Wind Speed 13 mph (NW)    
Max Wind Speed 30 mph    
Max Gust Speed 40 mph    
Visibility 10 miles    
Events      
T = Trace of Precipitation, MM = Missing Value Source: NWS Daily Summary

Daily Weather History Graph

Daily Weather History Graph

Search for Another Location

Airport or City:

Trip Planner

Search our weather history database for the weather conditions in past years. The results will help you decide how hot, cold, wet, or windy it might be!

Date:

Astronomy

Jan. 21, 2014 Rise Set
Actual Time 6:51 AM CST 5:05 PM CST
Civil Twilight 6:24 AM CST 5:32 PM CST
Nautical Twilight 5:53 AM CST 6:03 PM CST
Astronomical Twilight 5:23 AM CST 6:33 PM CST
Moon 10:22 PM CST (1/21) 9:35 AM CST (1/21)
Length of Visible Light 11h 07m
Length of Day
10h 13m
Waning Gibbous, 74% of the Moon is Illuminated
Jan 21
Waning Gibbous
Jan 23
Last Quarter
Jan 30
New
Feb 6
First Quarter
Feb 14
Full

Hourly Weather History & Observations

Time (CST) Temp. Windchill Dew Point Humidity Pressure Visibility Wind Dir Wind Speed Gust Speed Precip Events Conditions
12:53 AM 51.1 °F - 30.0 °F 44% 29.80 in 10.0 mi WSW 9.2 mph - N/A   Overcast
1:53 AM 48.9 °F - 30.9 °F 50% 29.79 in 10.0 mi West 6.9 mph - N/A   Overcast
2:53 AM 46.9 °F - 30.0 °F 52% 29.79 in 10.0 mi WNW 9.2 mph - N/A   Clear
3:53 AM 43.0 °F 38.2 °F 30.0 °F 60% 29.82 in 10.0 mi NW 8.1 mph - N/A   Scattered Clouds
4:53 AM 39.9 °F 35.1 °F 28.9 °F 65% 29.84 in 10.0 mi NW 6.9 mph - N/A   Clear
5:53 AM 37.9 °F 32.7 °F 28.9 °F 70% 29.87 in 10.0 mi WNW 6.9 mph - N/A   Partly Cloudy
6:53 AM 37.0 °F 31.6 °F 28.9 °F 73% 29.89 in 10.0 mi WNW 6.9 mph - N/A   Partly Cloudy
7:53 AM 39.0 °F 33.4 °F 30.9 °F 73% 29.91 in 10.0 mi WNW 8.1 mph - N/A   Mostly Cloudy
8:53 AM 41.0 °F 32.2 °F 30.0 °F 65% 29.94 in 10.0 mi NW 18.4 mph 26.5 mph N/A   Mostly Cloudy
9:53 AM 41.0 °F 32.8 °F 27.0 °F 57% 29.97 in 10.0 mi NW 16.1 mph 27.6 mph N/A   Mostly Cloudy
10:53 AM 39.0 °F 28.0 °F 26.1 °F 60% 30.01 in 10.0 mi NW 25.3 mph 40.3 mph 0.00 in   Overcast
11:35 AM 35.6 °F 24.5 °F 24.8 °F 65% 30.02 in 10.0 mi NW 20.7 mph 27.6 mph N/A   Overcast
11:53 AM 33.1 °F 21.2 °F 23.0 °F 66% 30.03 in 10.0 mi NW 20.7 mph 31.1 mph N/A   Overcast
12:53 PM 30.9 °F 17.8 °F 21.0 °F 67% 30.04 in 10.0 mi NW 23.0 mph 31.1 mph N/A   Overcast
1:53 PM 30.9 °F 19.1 °F 18.0 °F 59% 30.06 in 10.0 mi NNW 18.4 mph 27.6 mph N/A   Mostly Cloudy
2:53 PM 30.9 °F 20.7 °F 17.1 °F 57% 30.08 in 10.0 mi NNW 13.8 mph - N/A   Mostly Cloudy
3:53 PM 30.0 °F 20.5 °F 15.1 °F 54% 30.11 in 10.0 mi North 11.5 mph 21.9 mph N/A   Mostly Cloudy
4:53 PM 28.9 °F 17.3 °F 12.9 °F 51% 30.14 in 10.0 mi NNW 16.1 mph 21.9 mph N/A   Mostly Cloudy
5:53 PM 26.1 °F 14.5 °F 12.0 °F 55% 30.17 in 10.0 mi North 13.8 mph - N/A   Mostly Cloudy
6:53 PM 24.1 °F 11.5 °F 10.9 °F 57% 30.19 in 10.0 mi North 15.0 mph - N/A   Mostly Cloudy
7:53 PM 21.9 °F 10.4 °F 10.0 °F 60% 30.19 in 10.0 mi North 11.5 mph - N/A   Partly Cloudy
8:53 PM 21.0 °F 11.4 °F 9.0 °F 60% 30.19 in 10.0 mi North 8.1 mph - N/A   Partly Cloudy
9:53 PM 19.9 °F 7.9 °F 8.1 °F 60% 30.19 in 10.0 mi NNW 11.5 mph - N/A   Partly Cloudy
10:53 PM 19.9 °F 9.3 °F 8.1 °F 60% 30.19 in 10.0 mi NNW 9.2 mph - N/A   Partly Cloudy
11:53 PM 19.0 °F 10.0 °F 7.0 °F 59% 30.20 in 10.0 mi NNW 6.9 mph - N/A   Clear